{"data":{"norad_id":57092,"intl_designator":"2023-088AW","name":"STARLINK-6225","alt_names":[],"object_type":"PAYLOAD","status":"ACTIVE","operator":null,"country":"US","launch_date":"2023-06-22","launch_site_code":"AFWTR","launch_vehicle":null,"mission":null,"orbit_class":"UNKNOWN","rcs_meters":null,"size_class":null,"mass_kg":null,"dimensions":null,"purposes":["comms"],"wikipedia_slug":null,"has_3d_model":false,"image_url":null,"decayed_at":null,"tle_current":{"epoch":"2026-09-19T22:54:08.597088Z","epoch_age_seconds":168126,"freshness":"FRESH","line1":"1 57092U 23088AW  26262.95426617  .00000066  00000+0  11954-4 0  9997","line2":"2 57092  43.0061  78.7563 0001882 264.9606  95.1030 15.27570550180214","mean_motion":15.2757055,"eccentricity":0.0001882,"inclination_deg":43.0061,"raan_deg":78.7563,"arg_perigee_deg":264.9606,"mean_anomaly_deg":95.103,"bstar":1.1954e-5,"rev_number":18021,"period_min":94.267331875441,"perigee_km":481.78611233641,"apogee_km":484.36867343389,"semimajor_km":6861.2143928851,"source":"CELESTRAK","updated_at":"2026-09-21T09:00:33.557126Z"}}}